Вернуться в каталог

SL-14 DEB

АктивенPO
NORAD 26018·DEBRIS·🇷🇺 Russia

Запущен Sep 28, 1991 с Plesetsk Cosmodrome

Loading…

Ближайшие Пролёты (ближайшие 24 часа)

TLE

СвежийSource: Space-Track

Эпоха: Sep 14, 2026, 10:29 UTC

1 26018U 91068AD  26257.43704620 -.00000003  00000-0 -90845-4 0  9994
2 26018  82.7099 245.8770 0018180 325.4428 188.8094 12.45385302593179

Отслеживайте SL-14 DEB в реальном времени с AllMySat

Download on the App Store